Location: Krasnoyarskiy Pitomnik
(51.1333°N, 71.6167°E)
Time: 22:41:19
(UTC+00:00)

deb Explorer IX - Pass Details

Date: 20 April 2024
Orbit: 513 x 891 km, 38.7° (Epoch: 21 May)

Event Time Altitude Azimuth Distance (km) Brightness Sun altitude
Rises 10:32:15 0° 259° (W) 3,527 ? 33.6°
Reaches altitude 10° 10:35:43 10° 241° (WSW) 2,581 ? 33.1°
Maximum altitude 10:39:37 17° 202° (SSW) 2,071 ? 32.6°
Drops below altitude 10° 10:43:26 10° 163° (SSE) 2,508 ? 32.0°
Sets 10:46:52 0° 144° (SE) 3,419 ? 31.5°
